This demonstration page uses our WeatherBlox Daily Observations layout. Learn more.

Left ArrowRight Arrow

41.55636, -103.73856

Hourly Observations for June 22, 2019

Temp ( °F °C ) Dew Point ( °F °C ) Humidity (%) Winds ( mph kmh ) Pressure ( in mb ) Visibility ( mi km ) Precip ( " mm )
12:58 am 00:58 Cloudy with Light Showers 53 11.6 42 5.4 66 66 SSW 7 11 29.92 1013 10 16 N/A
1:58 am 01:58 Cloudy 50 10.2 43 6 75 75 SSE 6 9 29.93 1014 10 16 N/A
2:58 am 02:58 Cloudy 50 9.8 43 6.3 79 79 S 6 9 29.93 1013 10 16 N/A
3:58 am 03:58 Cloudy 49 9.7 44 6.6 81 81 SSW 9 15 29.98 1015 10 16 N/A
4:58 am 04:58 Mostly Cloudy 49 9.3 43 6.2 81 81 S 8 13 29.98 1015 10 16 N/A
5:58 am 05:58 Mostly Cloudy 48 9.1 44 6.7 85 85 S 6 9 29.97 1015 10 16 N/A
6:58 am 06:58 Mostly Cloudy with Light Showers 50 10 42 5.8 75 75 S 8 13 29.93 1014 10 16 0.01 0.25
7:58 am 07:58 Cloudy 49 9.3 42 5.4 77 77 SSW 5 7 29.97 1015 10 16 N/A
8:58 am 08:58 Cloudy with Light Showers 48 8.9 43 5.9 82 82 S 8 13 29.96 1015 10 16 N/A
9:58 am 09:58 Cloudy with Light Showers 47 8.4 43 6.2 86 86 S 12 19 29.97 1015 8 13 0.01 0.25
10:58 am 10:58 Cloudy with Light Rain 46 8 43 6 87 87 S 8 13 29.99 1016 10 16 0.01 0.25
11:58 am 11:58 Cloudy with Rain 46 7.6 43 6.2 91 91 SSW 9 15 30.02 1017 6 10 0.04 1.02
12:58 pm 12:58 Cloudy with Light Rain 46 7.6 43 6.3 92 92 SSW 10 17 30.03 1017 10 16 0.01 0.25
1:58 pm 13:58 Mostly Cloudy with Light Rain 46 7.9 43 6.3 90 90 S 10 17 30.05 1018 10 16 0.06 1.52
2:58 pm 14:58 Mostly Sunny 50 9.8 45 7.1 83 83 S 15 24 30.01 1016 10 16 N/A
3:58 pm 15:58 Sunny 52 11.1 46 7.6 79 79 SSW 9 15 30.01 1016 10 16 N/A
4:58 pm 16:58 Mostly Sunny 55 12.9 45 7.2 69 69 SSW 10 17 30.00 1016 10 16 N/A
5:58 pm 17:58 Mostly Cloudy 58 14.3 45 7.2 63 63 SSW 8 13 29.98 1015 10 16 N/A
6:58 pm 18:58 Mostly Cloudy 61 15.9 46 7.7 58 58 SW 10 17 29.95 1014 10 16 N/A
7:58 pm 19:58 Partly Cloudy 61 16.2 47 8.2 59 59 SW 8 13 29.94 1014 10 16 N/A
8:58 pm 20:58 Mostly Sunny 63 17 47 8.1 56 56 SW 8 13 29.92 1013 10 16 N/A
9:58 pm 21:58 Mostly Cloudy 63 17.3 42 5.3 45 45 SSE 5 7 29.92 1013 10 16 N/A
10:58 pm 22:58 Sunny 63 17.4 44 6.8 50 50 N N/A 29.91 1013 10 16 N/A
11:58 pm 23:58 Mostly Cloudy with Thunderstorms 61 16 47 8.2 60 60 ENE 8 13 29.94 1014 10 16 N/A

Powered by AerisWeather